Find Local Weather

World > North America > United States > Ohio

Enon Beach Recreation Park, Ohio Regional Weather

Enon Road and Interstate, Donnelsville, OH 45319
Lat: 39.92N, Lon: 83.95W
Wx Zone: OHZ053
Warning FLW WEATHER ALERT - (More Info. Click Here) Warning
Feedback
Expires:201806191600;;783016
ASUS41 KCLE 191512
RWRCLE
OHIO REGIONAL WEATHER ROUNDUP
NATIONAL WEATHER SERVICE WILMINGTON, OH
1100 AM EDT TUE JUN 19 2018

NOTE: "FAIR" INDICATES FEW OR NO CLOUDS BELOW 12,000 FEET WITH NO
SIGNIFICANT WEATHER AND/OR OBSTRUCTIONS TO VISIBILITY.


OHZ042-051>053-060>062-070>072-077>081-191600-
  SOUTHWEST OHIO
  
CITY           SKY/WX    TMP DP  RH WIND       PRES   REMARKS
CINC-COVINGTON FAIR      86  72  62 W10       30.01F HX  92           
CINC-LUNKEN    FAIR      87  76  69 W8        29.99F HX  97           
HAMILTON       FAIR      87  75  67 W6        29.99F HX  96           
DAYTON         FAIR      85  79  82 W12       29.99F HX  98           
WRIGHT-PAT AFB FAIR      85  74  70 W5        29.98S HX  93           
DAYTON GENERAL FAIR      85  73  67 SW9       29.99S HX  91           
WILMINGTON     FAIR      85  76  74 VRB6      29.99F HX  94           
$$


SKY/WX - Weather  TMP - Temperature  DP - Dewpoint  RH - Relative Humidity
WIND - Wind Direction/Speed PRES - Barometric Pressure